Simultaneous Nadir Overpasses (SNOs) Predictions

Prediction of SNOs between GOES-16 and LANDSAT-8 Satellite Orbit:

Table of predicted SNOs for the next 14.0 days since TLE Epoch: 4/15/2023
Index Date Time (GOES-16) GOES-16 Lat,Lon LANDSAT-8 Lat,Lon Distance(km) Time Diff (sec)
1 04/16/2023 15:12:07 0.05, -75.23 0.07, -75.38 16.39 80
2 04/18/2023 15:02:34 0.05, -75.25 -0.53, -72.41 322.31 80
3 04/19/2023 03:23:58 -0.05, -75.25 -0.57, -77.61 268.71 80
4 04/21/2023 03:09:06 -0.05, -75.28 0.11, -74.66 70.93 80
5 04/23/2023 02:56:52 -0.05, -75.31 0.70, -71.69 410.82 80
6 04/23/2023 15:18:08 0.04, -75.33 0.34, -76.86 173.25 80
7 04/25/2023 15:08:34 0.04, -75.37 -0.27, -73.90 167.41 80
8 04/26/2023 03:29:58 -0.04, -75.37 -0.80, -79.10 422.97 80
9 04/28/2023 03:17:44 -0.03, -75.42 -0.16, -76.14 81.40 80
